Back to catalog

COSMOS 1992

AliveMilitaryLEO
NORAD 19769·PAYLOAD·🇷🇺 Russia

Launched Jan 26, 1989 from Plesetsk Cosmodrome

Loading…

Next Passes (next 24 hours)

TLE

FreshSource: Space-Track

Epoch: Sep 13, 2026, 22:47 UTC

1 19769U 89005A   26256.94993497  .00000068  00000-0  32410-4 0  9997
2 19769  74.0441  85.6107 0023092 269.7033  90.1474 14.35861511969584

Track COSMOS 1992 in real time with AllMySat

Download on the App Store